Time,TemperatureF,DewpointF,PressureIn,WindDirection,WindDirectionDegrees,WindSpeedMPH,WindSpeedGustMPH,Humidity,HourlyPrecipIn,Conditions,Clouds,dailyrainin,SoftwareType,DateUTC
2013-03-07 00:04:00,30.5,27.9,29.89,South,169,0.0,0.0,90,0.00,,,0.00,VWS V14.01,2013-03-07 07:04:00,
2013-03-07 00:12:00,30.5,27.9,29.90,South,169,0.0,0.0,90,0.00,,,0.00,VWS V14.01,2013-03-07 07:12:00,
2013-03-07 00:19:00,30.4,27.8,29.90,South,169,0.0,2.0,90,0.00,,,0.00,VWS V14.01,2013-03-07 07:19:00,
2013-03-07 00:34:00,30.5,27.6,29.90,South,169,0.0,0.0,89,0.00,,,0.00,VPLive 1.2.5.27,2013-03-07 07:34:00,
2013-03-07 00:44:00,31.2,28.3,29.90,South,190,0.0,7.0,89,0.00,,,0.00,VWS V14.01,2013-03-07 07:44:00,
2013-03-07 00:57:00,30.7,27.9,29.91,South,190,1.0,7.0,89,0.00,,,0.00,VWS V14.01,2013-03-07 07:57:00,
2013-03-07 01:03:00,30.7,27.9,29.92,South,190,0.0,0.0,89,0.00,,,0.00,VWS V14.01,2013-03-07 08:03:00,
2013-03-07 01:08:00,30.7,27.9,29.92,South,190,0.0,2.0,89,0.00,,,0.00,VWS V14.01,2013-03-07 08:08:00,
2013-03-07 01:13:00,30.8,28.0,29.92,South,190,0.0,2.0,89,0.00,,,0.00,VWS V14.01,2013-03-07 08:13:00,
2013-03-07 01:18:00,30.8,28.0,29.93,South,190,0.0,2.0,89,0.00,,,0.00,VWS V14.01,2013-03-07 08:18:00,
2013-03-07 01:23:00,30.7,27.9,29.93,South,190,0.0,2.0,89,0.00,,,0.00,VWS V14.01,2013-03-07 08:23:00,
2013-03-07 01:28:00,30.6,27.8,29.93,South,190,0.0,2.0,89,0.00,,,0.00,VWS V14.01,2013-03-07 08:28:00,
2013-03-07 01:33:00,30.6,27.8,29.93,South,190,0.0,0.0,89,0.00,,,0.00,VWS V14.01,2013-03-07 08:33:00,
2013-03-07 01:38:00,30.6,27.8,29.94,South,190,0.0,0.0,89,0.00,,,0.00,VWS V14.01,2013-03-07 08:38:00,
2013-03-07 01:43:00,30.6,27.8,29.94,South,190,0.0,0.0,89,0.00,,,0.00,VWS V14.01,2013-03-07 08:43:00,
2013-03-07 01:48:00,30.7,27.9,29.94,South,190,0.0,0.0,89,0.00,,,0.00,VWS V14.01,2013-03-07 08:48:00,
2013-03-07 01:53:00,30.8,28.0,29.95,South,190,0.0,2.0,89,0.00,,,0.00,VWS V14.01,2013-03-07 08:53:00,
2013-03-07 01:58:00,30.8,28.0,29.95,South,190,0.0,3.0,89,0.00,,,0.00,VWS V14.01,2013-03-07 08:58:00,
2013-03-07 02:03:00,30.8,28.0,29.95,South,190,0.0,0.0,89,0.00,,,0.00,VWS V14.01,2013-03-07 09:03:00,
2013-03-07 02:14:00,31.0,27.9,29.96,SSW,196,7.0,8.0,88,0.00,,,0.00,VPLive 1.2.5.27,2013-03-07 09:14:00,
2013-03-07 02:39:00,33.0,30.1,29.96,South,190,5.0,6.0,89,0.00,,,0.00,VPLive 1.2.5.27,2013-03-07 09:39:00,
2013-03-07 02:54:00,33.8,30.6,29.97,South,189,5.0,10.0,88,0.00,,,0.00,VWS V14.01,2013-03-07 09:54:00,
2013-03-07 03:02:00,33.7,30.0,29.97,South,188,5.0,6.0,86,0.00,,,0.00,VWS V14.01,2013-03-07 10:02:00,
2013-03-07 03:10:00,33.8,29.8,29.97,SSW,201,4.0,9.0,85,0.00,,,0.00,VWS V14.01,2013-03-07 10:10:00,
2013-03-07 03:21:00,33.9,29.3,29.97,SSW,209,6.0,9.0,83,0.00,,,0.00,VWS V14.01,2013-03-07 10:21:00,
2013-03-07 03:29:00,32.3,28.6,29.97,South,181,4.0,9.0,86,0.00,,,0.00,VWS V14.01,2013-03-07 10:29:00,
2013-03-07 03:35:00,32.7,29.0,29.98,South,188,6.0,7.0,86,0.00,,,0.00,VWS V14.01,2013-03-07 10:35:00,
2013-03-07 03:40:00,33.6,29.3,29.98,SSW,192,1.0,7.0,84,0.00,,,0.00,VWS V14.01,2013-03-07 10:40:00,
2013-03-07 03:50:00,32.4,28.7,29.98,SSW,192,0.0,2.0,86,0.00,,,0.00,VPLive 1.2.5.27,2013-03-07 10:50:00,
2013-03-07 03:55:00,31.8,28.7,29.99,SSW,192,0.0,7.0,88,0.00,,,0.00,VWS V14.01,2013-03-07 10:55:00,
2013-03-07 04:00:00,31.4,28.5,29.99,SSW,192,3.0,7.0,89,0.00,,,0.00,VWS V14.01,2013-03-07 11:00:00,
2013-03-07 04:05:00,31.5,28.6,29.99,SSW,192,0.0,0.0,89,0.00,,,0.00,VWS V14.01,2013-03-07 11:05:00,
2013-03-07 04:10:00,31.4,28.5,29.99,SSW,192,0.0,2.0,89,0.00,,,0.00,VWS V14.01,2013-03-07 11:10:00,
2013-03-07 04:15:00,31.3,28.7,29.99,SSW,192,2.0,4.0,90,0.00,,,0.00,VWS V14.01,2013-03-07 11:15:00,
2013-03-07 04:20:00,31.1,28.5,29.99,SSW,192,2.0,4.0,90,0.00,,,0.00,VWS V14.01,2013-03-07 11:20:00,
2013-03-07 04:25:00,30.8,28.2,29.99,SSW,192,0.0,4.0,90,0.00,,,0.00,VWS V14.01,2013-03-07 11:25:00,
2013-03-07 04:30:00,31.0,28.4,29.99,SSW,192,0.0,3.0,90,0.00,,,0.00,VPLive 1.2.5.27,2013-03-07 11:30:00,
2013-03-07 04:35:00,31.1,28.5,30.00,SSW,192,0.0,0.0,90,0.00,,,0.00,VWS V14.01,2013-03-07 11:35:00,
2013-03-07 04:40:00,31.1,28.5,30.00,SSW,192,0.0,0.0,90,0.00,,,0.00,VWS V14.01,2013-03-07 11:40:00,
2013-03-07 04:45:00,31.1,28.5,30.00,SSW,192,0.0,0.0,90,0.00,,,0.00,VWS V14.01,2013-03-07 11:45:00,
2013-03-07 04:51:00,30.7,28.4,30.00,SSW,192,0.0,0.0,91,0.00,,,0.00,VWS V14.01,2013-03-07 11:51:00,
2013-03-07 04:56:00,30.6,28.3,30.00,South,184,4.0,5.0,91,0.00,,,0.00,VWS V14.01,2013-03-07 11:56:00,
2013-03-07 05:01:00,31.0,28.7,30.00,SE,138,5.0,5.0,91,0.00,,,0.00,VWS V14.01,2013-03-07 12:01:00,
2013-03-07 05:06:00,31.3,29.0,30.01,SE,138,4.0,6.0,91,0.00,,,0.00,VWS V14.01,2013-03-07 12:06:00,
2013-03-07 05:14:00,32.3,29.4,30.01,SE,138,0.0,6.0,89,0.00,,,0.00,VWS V14.01,2013-03-07 12:14:00,
2013-03-07 05:19:00,32.2,29.0,30.01,SE,138,0.0,6.0,88,0.00,,,0.00,VWS V14.01,2013-03-07 12:19:00,
2013-03-07 05:24:00,31.5,28.4,30.01,SE,138,1.0,6.0,88,0.00,,,0.00,VWS V14.01,2013-03-07 12:24:00,
2013-03-07 05:29:00,31.1,28.2,30.01,SE,138,0.0,6.0,89,0.00,,,0.00,VWS V14.01,2013-03-07 12:29:00,
2013-03-07 05:34:00,31.0,28.4,30.02,SE,138,1.0,2.0,90,0.00,,,0.00,VWS V14.01,2013-03-07 12:34:00,
2013-03-07 05:39:00,31.0,28.4,30.02,SE,138,0.0,4.0,90,0.00,,,0.00,VWS V14.01,2013-03-07 12:39:00,
2013-03-07 05:49:00,31.0,28.4,30.02,SE,138,0.0,4.0,90,0.00,,,0.00,VWS V14.01,2013-03-07 12:49:00,
2013-03-07 05:54:00,31.0,28.4,30.02,SE,138,0.0,4.0,90,0.00,,,0.00,VWS V14.01,2013-03-07 12:54:00,
2013-03-07 06:00:00,31.2,28.6,30.02,SE,138,2.0,6.0,90,0.00,,,0.00,VWS V14.01,2013-03-07 13:00:00,
2013-03-07 06:05:00,31.0,28.1,30.03,SE,138,2.0,5.0,89,0.00,,,0.00,VWS V14.01,2013-03-07 13:05:00,
2013-03-07 06:10:00,30.6,28.0,30.03,SE,138,4.0,5.0,90,0.00,,,0.00,VWS V14.01,2013-03-07 13:10:00,
2013-03-07 06:15:00,30.5,27.9,30.03,SE,138,1.0,5.0,90,0.00,,,0.00,VWS V14.01,2013-03-07 13:15:00,
2013-03-07 06:20:00,30.6,28.3,30.03,SE,138,0.0,1.0,91,0.00,,,0.00,VPLive 1.2.5.27,2013-03-07 13:20:00,
2013-03-07 06:25:00,30.6,28.3,30.03,SE,138,0.0,0.0,91,0.00,,,0.00,VPLive 1.2.5.27,2013-03-07 13:25:00,
2013-03-07 06:30:00,30.6,28.3,30.03,SE,138,0.0,5.0,91,0.00,,,0.00,VWS V14.01,2013-03-07 13:30:00,
2013-03-07 06:35:00,30.6,28.3,30.03,SE,138,0.0,4.0,91,0.00,,,0.00,VWS V14.01,2013-03-07 13:35:00,
2013-03-07 06:41:00,30.7,28.4,30.03,SE,138,0.0,4.0,91,0.00,,,0.00,VWS V14.01,2013-03-07 13:41:00,
2013-03-07 06:46:00,31.0,28.7,30.03,SE,138,1.0,4.0,91,0.00,,,0.00,VWS V14.01,2013-03-07 13:46:00,
2013-03-07 06:51:00,31.6,29.0,30.03,South,189,1.0,7.0,90,0.00,,,0.00,VWS V14.01,2013-03-07 13:51:00,
2013-03-07 06:56:00,31.9,28.8,30.04,South,189,0.0,7.0,88,0.00,,,0.00,VWS V14.01,2013-03-07 13:56:00,
2013-03-07 07:05:00,32.2,28.5,30.05,South,190,3.0,4.0,86,0.00,,,0.00,VWS V14.01,2013-03-07 14:05:00,
2013-03-07 07:10:00,31.9,28.2,30.05,South,190,1.0,3.0,86,0.00,,,0.00,VPLive 1.2.5.27,2013-03-07 14:10:00,
2013-03-07 07:15:00,32.3,28.3,30.05,South,184,6.0,13.0,85,0.00,,,0.00,VWS V14.01,2013-03-07 14:15:00,
2013-03-07 07:20:00,32.9,28.3,30.05,South,177,8.0,10.0,83,0.00,,,0.00,VPLive 1.2.5.27,2013-03-07 14:20:00,
2013-03-07 07:25:00,33.3,28.1,30.05,SSW,207,6.0,13.0,81,0.00,,,0.00,VWS V14.01,2013-03-07 14:25:00,
2013-03-07 07:30:00,33.4,27.9,30.05,SSW,202,5.0,13.0,80,0.00,,,0.00,VWS V14.01,2013-03-07 14:30:00,
2013-03-07 07:35:00,33.5,28.0,30.05,South,191,8.0,10.0,80,0.00,,,0.00,VPLive 1.2.5.27,2013-03-07 14:35:00,
2013-03-07 07:43:00,33.6,27.8,30.06,SSW,196,6.0,11.0,79,0.00,,,0.00,VWS V14.01,2013-03-07 14:43:00,
2013-03-07 07:48:00,33.6,27.8,30.06,SSW,203,9.0,11.0,79,0.00,,,0.00,VWS V14.01,2013-03-07 14:48:00,
2013-03-07 07:53:00,33.6,27.8,30.06,SSW,203,4.0,11.0,79,0.00,,,0.00,VWS V14.01,2013-03-07 14:53:00,
2013-03-07 07:58:00,33.7,27.9,30.06,SW,215,6.0,11.0,79,0.00,,,0.00,VWS V14.01,2013-03-07 14:58:00,
2013-03-07 08:03:00,33.7,27.6,30.06,SSW,213,1.0,7.0,78,0.00,,,0.00,VWS V14.01,2013-03-07 15:03:00,
2013-03-07 08:08:00,33.6,27.5,30.07,SW,221,3.0,7.0,78,0.00,,,0.00,VWS V14.01,2013-03-07 15:08:00,
2013-03-07 08:13:00,33.5,27.7,30.07,SSW,210,5.0,7.0,79,0.00,,,0.00,VWS V14.01,2013-03-07 15:13:00,
2013-03-07 08:18:00,33.5,27.4,30.07,SSW,199,5.0,8.0,78,0.00,,,0.00,VWS V14.01,2013-03-07 15:18:00,
2013-03-07 08:23:00,33.4,27.6,30.07,SW,217,3.0,8.0,79,0.00,,,0.00,VWS V14.01,2013-03-07 15:23:00,
2013-03-07 08:28:00,33.4,27.6,30.07,SW,224,4.0,8.0,79,0.00,,,0.00,VWS V14.01,2013-03-07 15:28:00,
2013-03-07 08:33:00,33.6,27.8,30.07,SSW,211,7.0,9.0,79,0.00,,,0.00,VWS V14.01,2013-03-07 15:33:00,
2013-03-07 08:38:00,33.9,27.8,30.07,SSW,206,2.0,9.0,78,0.00,,,0.00,VWS V14.01,2013-03-07 15:38:00,
2013-03-07 08:44:00,34.0,27.6,30.07,SSW,207,5.0,9.0,77,0.00,,,0.00,VWS V14.01,2013-03-07 15:44:00,
2013-03-07 08:49:00,34.2,27.8,30.08,SW,236,7.0,9.0,77,0.00,,,0.00,VWS V14.01,2013-03-07 15:49:00,
2013-03-07 08:54:00,34.4,28.0,30.08,SW,220,4.0,9.0,77,0.00,,,0.00,VWS V14.01,2013-03-07 15:54:00,
2013-03-07 08:59:00,34.4,28.0,30.08,SW,227,6.0,9.0,77,0.00,,,0.00,VWS V14.01,2013-03-07 15:59:00,
2013-03-07 09:04:00,34.5,28.0,30.07,SW,216,4.0,10.0,77,0.00,,,0.00,VWS V14.01,2013-03-07 16:04:00,
2013-03-07 09:09:00,34.8,28.0,30.07,SSW,212,7.0,12.0,76,0.00,,,0.00,VWS V14.01,2013-03-07 16:09:00,
2013-03-07 09:14:00,35.3,28.5,30.08,SW,225,6.0,11.0,76,0.01,,,0.01,VPLive 1.2.5.27,2013-03-07 16:14:00,
2013-03-07 09:19:00,35.6,28.5,30.07,SW,225,9.0,11.0,75,0.01,,,0.01,VPLive 1.2.5.27,2013-03-07 16:19:00,
2013-03-07 09:24:00,35.6,28.5,30.08,SW,221,7.0,11.0,75,0.01,,,0.01,VPLive 1.2.5.27,2013-03-07 16:24:00,
2013-03-07 09:29:00,35.9,29.1,30.08,SSW,211,3.0,12.0,76,0.01,,,0.01,VWS V14.01,2013-03-07 16:29:00,
2013-03-07 09:34:00,36.0,28.9,30.08,WSW,256,5.0,11.0,75,0.01,,,0.01,VWS V14.01,2013-03-07 16:34:00,
2013-03-07 09:39:00,36.2,29.0,30.07,WSW,239,6.0,11.0,75,0.01,,,0.01,VWS V14.01,2013-03-07 16:39:00,
2013-03-07 09:44:00,36.2,29.4,30.07,SW,223,7.0,11.0,76,0.01,,,0.01,VWS V14.01,2013-03-07 16:44:00,
2013-03-07 09:49:00,36.3,29.1,30.08,WSW,241,4.0,11.0,75,0.01,,,0.01,VWS V14.01,2013-03-07 16:49:00,
2013-03-07 09:54:00,36.6,28.4,30.08,SW,215,4.0,11.0,72,0.01,,,0.01,VWS V14.01,2013-03-07 16:54:00,
2013-03-07 09:59:00,36.8,29.0,30.08,SW,229,5.0,11.0,73,0.01,,,0.01,VWS V14.01,2013-03-07 16:59:00,
2013-03-07 10:04:00,36.8,28.6,30.08,WSW,252,5.0,9.0,72,0.01,,,0.01,VWS V14.01,2013-03-07 17:04:00,
2013-03-07 10:09:00,36.8,28.6,30.08,WSW,253,5.0,10.0,72,0.01,,,0.01,VWS V14.01,2013-03-07 17:09:00,
2013-03-07 10:14:00,36.8,29.0,30.08,SW,234,8.0,12.0,73,0.01,,,0.01,VWS V14.01,2013-03-07 17:14:00,
2013-03-07 10:19:00,36.5,29.0,30.08,SW,220,11.0,15.0,74,0.01,,,0.01,VWS V14.01,2013-03-07 17:19:00,
2013-03-07 10:24:00,36.6,28.8,30.09,SW,227,8.0,15.0,73,0.01,,,0.01,VWS V14.01,2013-03-07 17:24:00,
2013-03-07 10:29:00,36.9,28.7,30.09,SW,232,8.0,15.0,72,0.01,,,0.01,VWS V14.01,2013-03-07 17:29:00,
2013-03-07 10:34:00,37.1,28.9,30.09,SW,232,8.0,11.0,72,0.00,,,0.01,VWS V14.01,2013-03-07 17:34:00,
2013-03-07 10:39:00,37.1,28.6,30.09,SSW,212,8.0,15.0,71,0.00,,,0.01,VWS V14.01,2013-03-07 17:39:00,
2013-03-07 10:44:00,37.1,28.6,30.09,SW,227,6.0,15.0,71,0.00,,,0.01,VWS V14.01,2013-03-07 17:44:00,
2013-03-07 10:49:00,37.5,29.3,30.09,SW,223,8.0,12.0,72,0.00,,,0.01,VPLive 1.2.5.27,2013-03-07 17:49:00,
2013-03-07 10:54:00,37.6,28.7,30.09,SSW,208,6.0,15.0,70,0.00,,,0.01,VWS V14.01,2013-03-07 17:54:00,
2013-03-07 10:59:00,37.8,28.9,30.09,SW,232,8.0,15.0,70,0.00,,,0.01,VWS V14.01,2013-03-07 17:59:00,
2013-03-07 11:04:00,37.8,28.2,30.10,SSW,201,11.0,18.0,68,0.00,,,0.01,VWS V14.01,2013-03-07 18:04:00,
2013-03-07 11:09:00,37.9,28.3,30.10,South,186,5.0,18.0,68,0.00,,,0.01,VWS V14.01,2013-03-07 18:09:00,
2013-03-07 11:14:00,38.0,28.0,30.10,South,178,12.0,18.0,67,0.00,,,0.01,VWS V14.01,2013-03-07 18:14:00,
2013-03-07 11:19:00,38.1,28.5,30.10,SSW,196,9.0,18.0,68,0.00,,,0.01,VWS V14.01,2013-03-07 18:19:00,
2013-03-07 11:25:00,38.2,28.2,30.10,SSW,209,8.0,17.0,67,0.00,,,0.01,VPLive 1.2.5.27,2013-03-07 18:25:00,
2013-03-07 11:29:00,38.4,28.4,30.10,SW,233,12.0,19.0,67,0.00,,,0.01,VWS V14.01,2013-03-07 18:29:00,
2013-03-07 11:34:00,38.4,28.4,30.10,SW,236,14.0,15.0,67,0.00,,,0.01,VWS V14.01,2013-03-07 18:34:00,
2013-03-07 11:39:00,38.4,28.8,30.10,SW,224,13.0,18.0,68,0.00,,,0.01,VWS V14.01,2013-03-07 18:39:00,
2013-03-07 11:44:00,38.3,28.3,30.10,SW,230,19.0,19.0,67,0.00,,,0.01,VWS V14.01,2013-03-07 18:44:00,
2013-03-07 11:49:00,38.3,28.7,30.10,SW,221,12.0,19.0,68,0.00,,,0.01,VWS V14.01,2013-03-07 18:49:00,
2013-03-07 11:54:00,38.7,29.1,30.10,SW,229,15.0,19.0,68,0.00,,,0.01,VWS V14.01,2013-03-07 18:54:00,
2013-03-07 11:59:00,39.2,28.8,30.10,WSW,241,11.0,20.0,66,0.00,,,0.01,VWS V14.01,2013-03-07 18:59:00,
2013-03-07 12:04:00,38.9,27.8,30.10,SSW,213,15.0,17.0,64,0.00,,,0.01,VWS V14.01,2013-03-07 19:04:00,
2013-03-07 12:09:00,38.8,28.1,30.11,SW,226,7.0,18.0,65,0.00,,,0.01,VWS V14.01,2013-03-07 19:09:00,
2013-03-07 12:14:00,39.1,28.3,30.11,SW,231,15.0,18.0,65,0.00,,,0.01,VWS V14.01,2013-03-07 19:14:00,
2013-03-07 12:19:00,39.8,29.0,30.11,SW,235,9.0,20.0,65,0.00,,,0.01,VWS V14.01,2013-03-07 19:19:00,
2013-03-07 12:24:00,40.6,29.0,30.11,SW,228,13.0,20.0,63,0.00,,,0.01,VWS V14.01,2013-03-07 19:24:00,
2013-03-07 12:29:00,40.1,28.1,30.11,SSW,203,8.0,20.0,62,0.00,,,0.01,VWS V14.01,2013-03-07 19:29:00,
2013-03-07 12:34:00,39.5,27.6,30.11,SW,233,7.0,17.0,62,0.00,,,0.01,VWS V14.01,2013-03-07 19:34:00,
2013-03-07 12:39:00,39.4,27.9,30.11,SSW,198,15.0,18.0,63,0.00,,,0.01,VWS V14.01,2013-03-07 19:39:00,
2013-03-07 12:45:00,39.3,27.8,30.11,SSW,196,14.0,18.0,63,0.00,,,0.01,VWS V14.01,2013-03-07 19:45:00,
2013-03-07 12:50:00,39.5,28.0,30.11,SW,215,12.0,18.0,63,0.00,,,0.01,VWS V14.01,2013-03-07 19:50:00,
2013-03-07 12:54:00,39.5,27.6,30.11,SW,223,6.0,18.0,62,0.00,,,0.01,VWS V14.01,2013-03-07 19:54:00,
2013-03-07 13:00:00,39.7,27.8,30.10,SW,218,11.0,18.0,62,0.00,,,0.01,VWS V14.01,2013-03-07 20:00:00,
2013-03-07 13:05:00,39.9,27.6,30.10,SSW,196,11.0,13.0,61,0.00,,,0.01,VWS V14.01,2013-03-07 20:05:00,
2013-03-07 13:10:00,39.8,27.9,30.10,SSW,213,12.0,15.0,62,0.00,,,0.01,VWS V14.01,2013-03-07 20:10:00,
2013-03-07 13:15:00,39.9,27.6,30.10,SW,225,11.0,16.0,61,0.00,,,0.01,VWS V14.01,2013-03-07 20:15:00,
2013-03-07 13:20:00,39.9,27.2,30.10,SW,224,7.0,17.0,60,0.00,,,0.01,VWS V14.01,2013-03-07 20:20:00,
2013-03-07 13:25:00,39.9,27.6,30.10,SW,236,11.0,18.0,61,0.00,,,0.01,VWS V14.01,2013-03-07 20:25:00,
2013-03-07 13:30:00,40.1,28.5,30.10,SW,236,16.0,18.0,63,0.00,,,0.01,VWS V14.01,2013-03-07 20:30:00,
2013-03-07 13:35:00,39.8,27.9,30.10,SW,227,12.0,16.0,62,0.00,,,0.01,VWS V14.01,2013-03-07 20:35:00,
2013-03-07 13:40:00,39.8,27.9,30.10,SW,215,10.0,16.0,62,0.00,,,0.01,VWS V14.01,2013-03-07 20:40:00,
2013-03-07 13:45:00,39.8,28.2,30.10,SW,217,15.0,19.0,63,0.00,,,0.01,VWS V14.01,2013-03-07 20:45:00,
2013-03-07 13:50:00,38.9,28.5,30.10,SW,218,12.0,21.0,66,0.00,,,0.01,VWS V14.01,2013-03-07 20:50:00,
2013-03-07 13:55:00,38.5,28.5,30.10,SSW,211,14.0,21.0,67,0.00,,,0.01,VWS V14.01,2013-03-07 20:55:00,
2013-03-07 14:00:00,37.5,29.0,30.10,SW,222,6.0,21.0,71,0.00,,,0.01,VWS V14.01,2013-03-07 21:00:00,
2013-03-07 14:05:00,38.0,29.5,30.10,SW,234,6.0,8.0,71,0.00,,,0.01,VWS V14.01,2013-03-07 21:05:00,
2013-03-07 14:10:00,38.9,30.0,30.10,SW,227,7.0,9.0,70,0.00,,,0.01,VWS V14.01,2013-03-07 21:10:00,
2013-03-07 14:15:00,39.6,30.6,30.09,SW,223,6.0,9.0,70,0.00,,,0.01,VWS V14.01,2013-03-07 21:15:00,
2013-03-07 14:20:00,41.2,30.0,30.09,SW,232,10.0,11.0,64,0.00,,,0.01,VWS V14.01,2013-03-07 21:20:00,
2013-03-07 14:25:00,41.3,29.3,30.09,WSW,248,11.0,11.0,62,0.00,,,0.01,VWS V14.01,2013-03-07 21:25:00,
2013-03-07 14:30:00,40.5,27.7,30.09,SW,225,13.0,16.0,60,0.00,,,0.01,VWS V14.01,2013-03-07 21:30:00,
2013-03-07 14:35:00,40.2,28.2,30.09,WSW,237,12.0,16.0,62,0.00,,,0.01,VWS V14.01,2013-03-07 21:35:00,
2013-03-07 14:40:00,41.3,29.3,30.09,SW,230,14.0,17.0,62,0.00,,,0.01,VWS V14.01,2013-03-07 21:40:00,
2013-03-07 14:45:00,42.3,29.0,30.09,SW,221,16.0,19.0,59,0.00,,,0.01,VWS V14.01,2013-03-07 21:45:00,
2013-03-07 14:50:00,42.3,28.2,30.09,WSW,252,12.0,21.0,57,0.00,,,0.01,VWS V14.01,2013-03-07 21:50:00,
2013-03-07 14:55:00,42.9,28.3,30.09,West,270,14.0,21.0,56,0.00,,,0.01,VWS V14.01,2013-03-07 21:55:00,
2013-03-07 15:00:00,43.1,27.6,30.08,SW,235,14.0,21.0,54,0.00,,,0.01,VWS V14.01,2013-03-07 22:00:00,
2013-03-07 15:05:00,42.0,27.0,30.09,WSW,238,15.0,17.0,55,0.00,,,0.01,VWS V14.01,2013-03-07 22:05:00,
2013-03-07 15:10:00,42.5,27.5,30.09,WSW,240,15.0,17.0,55,0.00,,,0.01,VWS V14.01,2013-03-07 22:10:00,
2013-03-07 15:15:00,42.4,27.0,30.09,SW,222,12.0,17.0,54,0.00,,,0.01,VWS V14.01,2013-03-07 22:15:00,
2013-03-07 15:20:00,42.6,27.1,30.09,SW,228,7.0,18.0,54,0.00,,,0.01,VWS V14.01,2013-03-07 22:20:00,
2013-03-07 15:26:00,42.4,27.0,30.09,WSW,258,11.0,18.0,54,0.00,,,0.01,VWS V14.01,2013-03-07 22:26:00,
2013-03-07 15:31:00,42.9,27.0,30.08,SSW,208,15.0,19.0,53,0.00,,,0.01,VWS V14.01,2013-03-07 22:31:00,
2013-03-07 15:36:00,43.1,27.1,30.08,SW,234,15.0,17.0,53,0.00,,,0.01,VWS V14.01,2013-03-07 22:36:00,
2013-03-07 15:41:00,43.2,27.2,30.08,SW,232,6.0,17.0,53,0.00,,,0.01,VWS V14.01,2013-03-07 22:41:00,
2013-03-07 15:46:00,43.0,28.0,30.09,WSW,254,9.0,17.0,55,0.00,,,0.01,VWS V14.01,2013-03-07 22:46:00,
2013-03-07 15:51:00,43.0,27.5,30.09,West,261,10.0,18.0,54,0.00,,,0.01,VWS V14.01,2013-03-07 22:51:00,
2013-03-07 15:56:00,43.3,27.3,30.09,SW,227,9.0,18.0,53,0.00,,,0.01,VWS V14.01,2013-03-07 22:56:00,
2013-03-07 16:01:00,43.2,27.2,30.09,WSW,248,9.0,18.0,53,0.00,,,0.01,VWS V14.01,2013-03-07 23:01:00,
2013-03-07 16:06:00,42.7,27.2,30.09,West,265,10.0,16.0,54,0.00,,,0.01,VWS V14.01,2013-03-07 23:06:00,
2013-03-07 16:11:00,42.5,27.0,30.09,SW,233,13.0,16.0,54,0.00,,,0.01,VWS V14.01,2013-03-07 23:11:00,
2013-03-07 16:16:00,42.6,26.7,30.09,WSW,246,6.0,16.0,53,0.00,,,0.01,VWS V14.01,2013-03-07 23:16:00,
2013-03-07 16:21:00,42.6,26.2,30.09,SW,222,15.0,17.0,52,0.00,,,0.01,VWS V14.01,2013-03-07 23:21:00,
2013-03-07 16:26:00,42.0,25.2,30.10,SW,218,11.0,18.0,51,0.00,,,0.01,VWS V14.01,2013-03-07 23:26:00,
2013-03-07 16:31:00,41.3,25.5,30.10,WSW,239,7.0,18.0,53,0.00,,,0.01,VWS V14.01,2013-03-07 23:31:00,
2013-03-07 16:36:00,40.8,25.9,30.10,SW,229,8.0,12.0,55,0.00,,,0.01,VWS V14.01,2013-03-07 23:36:00,
2013-03-07 16:41:00,40.6,25.7,30.09,WSW,244,7.0,13.0,55,0.00,,,0.01,VWS V14.01,2013-03-07 23:41:00,
2013-03-07 16:46:00,41.1,25.7,30.09,SSW,211,10.0,13.0,54,0.00,,,0.01,VWS V14.01,2013-03-07 23:46:00,
2013-03-07 16:51:00,41.1,25.3,30.09,SSW,205,8.0,13.0,53,0.00,,,0.01,VWS V14.01,2013-03-07 23:51:00,
2013-03-07 16:56:00,41.1,26.2,30.10,SSW,209,9.0,14.0,55,0.00,,,0.01,VWS V14.01,2013-03-07 23:56:00,
2013-03-07 17:01:00,41.6,26.6,30.10,WSW,240,11.0,14.0,55,0.00,,,0.01,VWS V14.01,2013-03-08 00:01:00,
2013-03-07 17:06:00,41.7,26.7,30.10,West,262,11.0,15.0,55,0.00,,,0.01,VWS V14.01,2013-03-08 00:06:00,
2013-03-07 17:11:00,41.8,25.9,30.10,West,269,9.0,15.0,53,0.00,,,0.01,VWS V14.01,2013-03-08 00:11:00,
2013-03-07 17:16:00,41.8,25.5,30.10,WSW,257,9.0,15.0,52,0.00,,,0.01,VWS V14.01,2013-03-08 00:16:00,
2013-03-07 17:21:00,41.5,25.2,30.09,WSW,242,8.0,15.0,52,0.00,,,0.01,VWS V14.01,2013-03-08 00:21:00,
2013-03-07 17:26:00,41.2,25.4,30.09,SW,223,12.0,15.0,53,0.00,,,0.01,VWS V14.01,2013-03-08 00:26:00,
2013-03-07 17:31:00,40.9,25.1,30.09,SW,230,10.0,15.0,53,0.00,,,0.01,VWS V14.01,2013-03-08 00:31:00,
2013-03-07 17:36:00,40.6,25.3,30.09,SW,227,11.0,15.0,54,0.00,,,0.01,VWS V14.01,2013-03-08 00:36:00,
2013-03-07 17:42:00,40.3,25.4,30.09,SW,230,13.0,14.0,55,0.00,,,0.01,VPLive 1.2.5.27,2013-03-08 00:42:00,
2013-03-07 17:47:00,40.0,25.1,30.09,SW,229,8.0,15.0,55,0.00,,,0.01,VWS V14.01,2013-03-08 00:47:00,
2013-03-07 17:52:00,39.3,24.9,30.09,SW,229,7.0,15.0,56,0.00,,,0.01,VWS V14.01,2013-03-08 00:52:00,
2013-03-07 17:57:00,38.9,25.0,30.09,SW,234,12.0,15.0,57,0.00,,,0.01,VWS V14.01,2013-03-08 00:57:00,
2013-03-07 18:02:00,39.2,25.3,30.09,SW,223,9.0,9.0,57,0.00,,,0.01,VWS V14.01,2013-03-08 01:02:00,
2013-03-07 18:07:00,39.1,25.2,30.09,SW,233,8.0,13.0,57,0.00,,,0.01,VWS V14.01,2013-03-08 01:07:00,
2013-03-07 18:12:00,38.5,24.6,30.09,SW,221,9.0,13.0,57,0.00,,,0.01,VWS V14.01,2013-03-08 01:12:00,
2013-03-07 18:17:00,37.9,24.9,30.10,WSW,238,4.0,13.0,59,0.00,,,0.01,VWS V14.01,2013-03-08 01:17:00,
2013-03-07 18:22:00,36.6,24.4,30.10,WSW,245,4.0,13.0,61,0.00,,,0.01,VWS V14.01,2013-03-08 01:22:00,
2013-03-07 18:27:00,36.0,24.3,30.10,WSW,238,6.0,13.0,62,0.00,,,0.01,VWS V14.01,2013-03-08 01:27:00,
2013-03-07 18:32:00,35.7,24.0,30.10,SW,229,4.0,4.0,62,0.00,,,0.01,VWS V14.01,2013-03-08 01:32:00,
2013-03-07 18:37:00,35.4,24.1,30.11,SW,219,5.0,8.0,63,0.00,,,0.01,VWS V14.01,2013-03-08 01:37:00,
2013-03-07 18:42:00,35.5,23.8,30.11,SW,219,7.0,9.0,62,0.00,,,0.01,VWS V14.01,2013-03-08 01:42:00,
2013-03-07 18:47:00,36.4,23.9,30.11,SW,222,6.0,10.0,60,0.00,,,0.01,VWS V14.01,2013-03-08 01:47:00,
2013-03-07 18:52:00,36.2,24.1,30.11,SW,233,2.0,10.0,61,0.00,,,0.01,VWS V14.01,2013-03-08 01:52:00,
2013-03-07 18:57:00,35.9,23.8,30.11,SSW,207,8.0,10.0,61,0.00,,,0.01,VWS V14.01,2013-03-08 01:57:00,
2013-03-07 19:02:00,35.9,23.8,30.11,SSW,199,6.0,7.0,61,0.00,,,0.01,VWS V14.01,2013-03-08 02:02:00,
2013-03-07 19:07:00,36.5,24.0,30.12,SSW,202,7.0,11.0,60,0.00,,,0.01,VWS V14.01,2013-03-08 02:07:00,
2013-03-07 19:12:00,36.9,23.9,30.11,South,190,12.0,12.0,59,0.00,,,0.01,VWS V14.01,2013-03-08 02:12:00,
2013-03-07 19:17:00,37.4,24.4,30.12,SSW,211,9.0,15.0,59,0.00,,,0.01,VWS V14.01,2013-03-08 02:17:00,
2013-03-07 19:22:00,37.4,24.0,30.12,SSW,197,7.0,15.0,58,0.00,,,0.01,VWS V14.01,2013-03-08 02:22:00,
2013-03-07 19:27:00,37.3,24.3,30.12,SW,217,8.0,15.0,59,0.00,,,0.01,VWS V14.01,2013-03-08 02:27:00,
2013-03-07 19:32:00,37.0,24.0,30.12,SW,215,10.0,10.0,59,0.00,,,0.01,VWS V14.01,2013-03-08 02:32:00,
2013-03-07 19:37:00,36.9,24.3,30.12,SSW,198,9.0,12.0,60,0.00,,,0.01,VWS V14.01,2013-03-08 02:37:00,
2013-03-07 19:42:00,36.5,24.3,30.12,SSW,206,7.0,12.0,61,0.00,,,0.01,VWS V14.01,2013-03-08 02:42:00,
2013-03-07 19:47:00,36.6,24.8,30.12,SW,222,8.0,13.0,62,0.00,,,0.01,VWS V14.01,2013-03-08 02:47:00,
2013-03-07 19:52:00,36.5,24.7,30.12,SSW,212,3.0,13.0,62,0.00,,,0.01,VWS V14.01,2013-03-08 02:52:00,
2013-03-07 19:57:00,36.2,24.5,30.12,SW,221,8.0,13.0,62,0.00,,,0.01,VWS V14.01,2013-03-08 02:57:00,
2013-03-07 20:02:00,36.1,24.7,30.12,SW,216,4.0,5.0,63,0.00,,,0.01,VWS V14.01,2013-03-08 03:02:00,
2013-03-07 20:07:00,36.0,24.6,30.12,SSW,202,4.0,9.0,63,0.00,,,0.01,VWS V14.01,2013-03-08 03:07:00,
2013-03-07 20:12:00,35.8,24.5,30.12,SSW,198,6.0,9.0,63,0.00,,,0.01,VWS V14.01,2013-03-08 03:12:00,
2013-03-07 20:17:00,35.6,24.6,30.12,SSE,158,4.0,10.0,64,0.00,,,0.01,VWS V14.01,2013-03-08 03:17:00,
2013-03-07 20:22:00,35.4,24.5,30.12,South,191,7.0,10.0,64,0.00,,,0.01,VWS V14.01,2013-03-08 03:22:00,
2013-03-07 20:27:00,35.1,24.5,30.13,South,190,5.0,10.0,65,0.00,,,0.01,VWS V14.01,2013-03-08 03:27:00,
2013-03-07 20:32:00,34.7,24.5,30.13,South,184,7.0,8.0,66,0.00,,,0.01,VWS V14.01,2013-03-08 03:32:00,
2013-03-07 20:37:00,34.4,24.2,30.13,South,187,6.0,8.0,66,0.00,,,0.01,VWS V14.01,2013-03-08 03:37:00,
2013-03-07 20:42:00,34.8,24.6,30.13,South,190,5.0,9.0,66,0.00,,,0.01,VWS V14.01,2013-03-08 03:42:00,
2013-03-07 20:47:00,34.4,24.2,30.13,SSW,192,4.0,9.0,66,0.00,,,0.01,VWS V14.01,2013-03-08 03:47:00,
2013-03-07 20:52:00,34.4,24.2,30.13,SSW,193,4.0,9.0,66,0.00,,,0.01,VWS V14.01,2013-03-08 03:52:00,
2013-03-07 20:57:00,34.4,24.2,30.13,SSW,193,2.0,9.0,66,0.00,,,0.01,VWS V14.01,2013-03-08 03:57:00,
2013-03-07 21:02:00,34.0,24.6,30.13,SSW,193,1.0,1.0,68,0.00,,,0.01,VWS V14.01,2013-03-08 04:02:00,
2013-03-07 21:07:00,32.5,23.5,30.13,SW,228,3.0,6.0,69,0.00,,,0.01,VWS V14.01,2013-03-08 04:07:00,
2013-03-07 21:12:00,31.2,22.9,30.13,SW,227,2.0,6.0,71,0.00,,,0.01,VWS V14.01,2013-03-08 04:12:00,
2013-03-07 21:17:00,30.8,23.2,30.13,SW,227,0.0,6.0,73,0.00,,,0.01,VWS V14.01,2013-03-08 04:17:00,
2013-03-07 21:22:00,30.8,23.2,30.13,SW,227,6.0,6.0,73,0.00,,,0.01,VWS V14.01,2013-03-08 04:22:00,
2013-03-07 21:27:00,31.0,23.4,30.13,SW,228,4.0,6.0,73,0.00,,,0.01,VWS V14.01,2013-03-08 04:27:00,
2013-03-07 21:32:00,30.8,23.2,30.13,SW,227,0.0,0.0,73,0.00,,,0.01,VWS V14.01,2013-03-08 04:32:00,
2013-03-07 21:37:00,30.7,23.1,30.13,SW,227,0.0,2.0,73,0.00,,,0.01,VWS V14.01,2013-03-08 04:37:00,
2013-03-07 21:42:00,29.6,22.4,30.13,NNE,12,0.0,5.0,74,0.00,,,0.01,VWS V14.01,2013-03-08 04:42:00,
2013-03-07 21:47:00,29.1,22.5,30.13,NNE,12,0.0,5.0,76,0.00,,,0.01,VWS V14.01,2013-03-08 04:47:00,
2013-03-07 21:52:00,29.7,22.8,30.13,NNE,12,3.0,5.0,75,0.00,,,0.01,VWS V14.01,2013-03-08 04:52:00,
2013-03-07 21:57:00,29.8,22.5,30.13,NNE,12,0.0,5.0,74,0.00,,,0.01,VWS V14.01,2013-03-08 04:57:00,
2013-03-07 22:00:00,29.7,22.4,30.13,NNE,12,0.0,5.0,74,0.00,,,0.01,VWS V14.01,2013-03-08 05:00:00,
2013-03-07 22:01:00,29.7,22.8,30.13,NNE,12,1.0,5.0,75,0.00,,,0.01,VWS V14.01,2013-03-08 05:01:00,
2013-03-07 22:06:00,29.4,22.1,30.13,NNE,14,4.0,5.0,74,0.00,,,0.01,VWS V14.01,2013-03-08 05:06:00,
2013-03-07 22:11:00,29.9,22.6,30.13,South,189,4.0,7.0,74,0.00,,,0.01,VWS V14.01,2013-03-08 05:11:00,
2013-03-07 22:16:00,30.6,23.3,30.13,South,189,0.0,7.0,74,0.00,,,0.01,VWS V14.01,2013-03-08 05:16:00,
2013-03-07 22:21:00,30.5,22.9,30.13,South,189,0.0,7.0,73,0.00,,,0.01,VWS V14.01,2013-03-08 05:21:00,
2013-03-07 22:26:00,29.6,22.4,30.13,South,189,0.0,7.0,74,0.00,,,0.01,VWS V14.01,2013-03-08 05:26:00,
2013-03-07 22:31:00,28.6,22.0,30.13,South,189,0.0,7.0,76,0.00,,,0.01,VWS V14.01,2013-03-08 05:31:00,
2013-03-07 22:36:00,28.1,21.8,30.13,South,189,0.0,0.0,77,0.00,,,0.01,VPLive 1.2.5.27,2013-03-08 05:36:00,
2013-03-07 22:41:00,27.9,21.6,30.13,South,189,0.0,2.0,77,0.00,,,0.01,VPLive 1.2.5.27,2013-03-08 05:41:00,
2013-03-07 22:46:00,27.8,21.9,30.13,South,189,2.0,2.0,78,0.00,,,0.01,VWS V14.01,2013-03-08 05:46:00,
2013-03-07 22:51:00,27.8,22.1,30.13,South,189,0.0,2.0,79,0.00,,,0.01,VWS V14.01,2013-03-08 05:51:00,
2013-03-07 22:56:00,28.1,22.4,30.13,South,189,1.0,3.0,79,0.00,,,0.01,VWS V14.01,2013-03-08 05:56:00,
2013-03-07 23:01:00,28.1,22.4,30.13,South,189,1.0,3.0,79,0.00,,,0.01,VWS V14.01,2013-03-08 06:01:00,
2013-03-07 23:06:00,27.9,22.2,30.13,South,189,0.0,1.0,79,0.00,,,0.01,VWS V14.01,2013-03-08 06:06:00,
2013-03-07 23:11:00,27.7,21.8,30.13,South,189,0.0,2.0,78,0.00,,,0.01,VWS V14.01,2013-03-08 06:11:00,
2013-03-07 23:16:00,27.5,21.9,30.13,SW,223,2.0,4.0,79,0.00,,,0.01,VWS V14.01,2013-03-08 06:16:00,
2013-03-07 23:21:00,27.3,21.7,30.13,SW,223,1.0,5.0,79,0.00,,,0.01,VWS V14.01,2013-03-08 06:21:00,
2013-03-07 23:26:00,27.5,21.9,30.13,SW,223,3.0,5.0,79,0.00,,,0.01,VWS V14.01,2013-03-08 06:26:00,
2013-03-07 23:31:00,27.5,21.5,30.13,SW,223,4.0,5.0,78,0.00,,,0.01,VWS V14.01,2013-03-08 06:31:00,
2013-03-07 23:36:00,26.9,21.6,30.13,SW,223,2.0,3.0,80,0.00,,,0.01,VWS V14.01,2013-03-08 06:36:00,
2013-03-07 23:41:00,26.9,21.3,30.13,SW,223,0.0,3.0,79,0.00,,,0.01,VWS V14.01,2013-03-08 06:41:00,
2013-03-07 23:47:00,26.7,21.4,30.13,SW,223,2.0,3.0,80,0.00,,,0.01,VWS V14.01,2013-03-08 06:47:00,
2013-03-07 23:52:00,26.2,21.2,30.13,SW,223,0.0,3.0,81,0.00,,,0.01,VWS V14.01,2013-03-08 06:52:00,